This is the latest recevied weather packets stored in our database for station/object LA9UTA-13. If no packets are shown the sender has not sent any weather packets the latest 10 day(s).
| Time | Temp. | Humidity | Pressure | Rain* | Wind** | Luminosity | Snow |
|---|---|---|---|---|---|---|---|
| 1777587482 | 7.78° C | 80% | 1026 hPa | 0 mm | - | 0 W/m² | - |
| 1777585083 | 8.89° C | 75% | 1025.9 hPa | 0 mm | - | 0 W/m² | - |
| 1777581482 | 10.56° C | 68% | 1025.7 hPa | 0 mm | - | 0 W/m² | - |
| 1777580282 | 10.56° C | 65% | 1025.7 hPa | 0 mm | - | 0 W/m² | - |
| 1777579082 | 11.67° C | 61% | 1025.6 hPa | 0 mm | - | 0 W/m² | - |
| 1777576682 | 12.78° C | 55% | 1025.5 hPa | 0 mm | - | 3 W/m² | - |
| 1777575482 | 13.33° C | 51% | 1025.4 hPa | 0 mm | - | 8 W/m² | - |
| 1777574282 | 15.56° C | 46% | 1025.2 hPa | 0 mm | - | 16 W/m² | - |
| 1777573082 | 17.78° C | 41% | 1025 hPa | 0 mm | - | 24 W/m² | - |
| 1777571882 | 17.78° C | 40% | 1025 hPa | 0 mm | - | 40 W/m² | - |
| 1777568282 | 20° C | 35% | 1024.7 hPa | 0 mm | - | 119 W/m² | - |
| 1777567082 | 20.56° C | 33% | 1024.7 hPa | 0 mm | - | 154 W/m² | - |
| 1777565882 | 20.56° C | 35% | 1024.7 hPa | 0 mm | - | 164 W/m² | - |
| 1777564682 | 21.67° C | 34% | 1024.6 hPa | 0 mm | - | 229 W/m² | - |
| 1777562282 | 22.78° C | 33% | 1024.4 hPa | 0 mm | - | 287 W/m² | - |
| 1777561083 | 21.67° C | 33% | 1024.6 hPa | 0 mm | - | 278 W/m² | - |
| 1777559882 | 23.33° C | 31% | 1024.4 hPa | 0 mm | - | 327 W/m² | - |
| 1777558682 | 23.89° C | 29% | 1025.4 hPa | 0 mm | - | 409 W/m² | - |
| 1777557482 | 23.89° C | 29% | 1025.5 hPa | 0 mm | - | 430 W/m² | - |
| 1777556282 | 23.33° C | 30% | 1025.5 hPa | 0 mm | - | 397 W/m² | - |
| 1777555082 | 23.33° C | 29% | 1025.5 hPa | 0 mm | - | 52 W/m² | - |
| 1777553882 | 22.22° C | 32% | 1025.6 hPa | 0 mm | - | 52 W/m² | - |
| 1777552682 | 21.67° C | 32% | 1026.7 hPa | 0 mm | - | 53 W/m² | - |
| 1777551482 | 22.22° C | 31% | 1026.6 hPa | 0 mm | - | 523 W/m² | - |
| 1777550282 | 21.11° C | 34% | 1026.7 hPa | 0 mm | - | 532 W/m² | - |
* Rain latest hour (hover to see other rain measurements)
** Current wind speed in m/s (hover to see current wind gust speed)